Location: Okie-Tex Star Party
(36.8978°N, 102.9520°W)
Time: 14:11:32
(UTC-05:00)

Daily predictions for brighter satellites

Satellite Brightness Start Highest point End
(mag) Time Altitude Azimuth Time Altitude Azimuth Time Altitude Azimuth
Cosmos 2297 Rocket 3.2 20:51:52 10° NNW 20:57:17 49° WSW 21:02:42 10° S
Cosmos 1110 Rocket 4.5 20:54:12 10° SSW 20:59:26 70° WNW 21:04:45 10° NNE
H-2A R/B 2.8 20:59:50 10° SSE 21:03:43 68° ENE 21:07:35 10° N
Cosmos 2263 Rocket 4.1 21:01:30 10° NNE 21:04:20 14° NE 21:07:10 10° E
Cosmos 2322 Rocket 2.9 21:02:59 10° SSE 21:07:49 31° ESE 21:12:41 10° NE
Cosmos 1302 Rocket 3.9 21:05:30 10° S 21:10:40 73° ESE 21:15:52 10° NNE
Envisat 4.1 21:06:37 10° SE 21:10:50 27° ENE 21:15:03 10° NNE
Cosmos 1315 Rocket 3.3 21:08:15 10° N 21:12:09 42° ENE 21:15:58 10° SSE
Meteor 2-3 Rocket 3.9 21:08:45 10° N 21:14:28 83° W 21:20:14 10° S
OTV 4 2.0 21:15:24 10° W 21:17:50 25° SSW 21:20:12 10° SSE
Cosmos 2360 Rocket 3.8 21:16:01 10° SE 21:18:34 13° E 21:21:09 10° ENE
Cosmos 1980 Rocket 2.6 21:13:13 10° SSW 21:18:51 70° WNW 21:24:32 10° NNE
CZ-2D R/B 3.2 21:20:22 10° SSE 21:24:15 81° ENE 21:28:09 10° N
Cosmos 1825 3.4 21:21:55 10° NNE 21:25:04 24° ENE 21:27:15 15° ESE
SEDSat Delta rocket 4.3 21:21:20 10° SW 21:26:04 35° SSE 21:30:34 14° ESE
Cosmos 2026 Rocket 4.4 21:22:43 10° N 21:28:36 42° ENE 21:34:21 10° SSE
USA 234 3.8 21:22:54 11° ESE 21:28:46 46° NE 21:34:57 10° NW
ATLAS CENTAUR R/B 3.0 21:31:17 10° WNW 21:34:01 41° SW 21:40:24 10° SSE
SL-16 R/B 2.3 21:29:55 10° S 21:35:24 54° ESE 21:40:55 10° NNE
USA 186 1.2 21:34:07 12° SSE 21:36:31 88° E 21:39:22 10° N
Cosmos 1862 4.5 21:35:25 10° NNE 21:38:48 25° ENE 21:40:18 20° ESE
Cosmos 1707 Rocket 4.0 21:35:49 10° SSW 21:40:15 67° W 21:44:40 10° N
Helios 1B rocket 2.3 21:37:49 10° NNE 21:41:55 70° ESE 21:45:59 10° S
Lacrosse 4 Rocket 2.3 21:38:59 10° N 21:42:59 35° ENE 21:45:08 22° ESE
ATLAS 5 CENTAUR R/B 3.9 21:39:34 10° N 21:44:03 21° NE 21:47:45 13° E
ERS-1 Rocket 4.1 21:42:09 19° ESE 21:44:31 27° ENE 21:48:40 10° NNE
ERBS 2.9 21:41:11 10° NNW 21:44:31 45° NE 21:46:04 26° ESE
SAR-Lupe-4 3.5 21:42:20 17° SSE 21:44:59 65° ENE 21:48:34 10° N
Cosmos 1634 Rocket 4.0 21:39:16 10° S 21:45:34 89° E 21:51:56 10° N
Intercosmos 25 Rocket 3.0 21:43:45 12° S 21:46:36 55° E 21:50:08 10° NNE
Cosmos 1939 Rocket 3.3 21:44:20 21° SE 21:46:45 45° ENE 21:50:36 10° N
Milstar 3 3.4 21:41:20 10° WSW 21:49:05 43° S 21:53:09 21° SE
Cosmos 1733 Rocket 3.7 21:45:10 10° N 21:49:21 38° E 21:51:21 25° SE
Cosmos 1092 Rocket 4.3 21:43:12 10° N 21:49:32 74° W 21:55:50 10° S
Cosmos 1862 Rocket 3.9 21:50:04 16° SSE 21:53:22 45° E 21:57:39 10° NNE
Cosmos 1486 Rocket 4.4 21:49:16 10° NNW 21:54:27 65° WSW 21:59:38 10° S
Cosmos 1655 Rocket 4.1 21:49:32 10° N 21:55:50 58° E 22:00:35 18° SSE
Meteor 2-20 Rocket 4.4 21:50:56 10° N 21:57:04 77° E 22:02:47 12° SSE
SeaSat 1 4.1 21:57:02 15° ENE 21:58:44 18° NE 22:02:02 10° N
Cosmos 1408 2.4 21:56:30 10° N 22:00:12 76° E 22:01:58 29° SSE
SAR-Lupe-1 4.0 22:00:28 24° S 22:02:29 85° WSW 22:06:05 10° NNW
Cosmos 1992 Rocket 3.9 21:58:02 10° S 22:03:13 69° ESE 22:08:26 10° NNE
USA 229 DEB 4.2 22:02:32 10° S 22:08:30 34° ESE 22:14:33 10° NE
USA 229 4.2 22:02:39 10° S 22:08:35 33° ESE 22:14:37 10° NE
Atlas Centaur 2 3.3 22:03:58 10° SW 22:10:36 42° SSE 22:14:12 28° ESE
Cosmos 2242 Rocket 4.1 22:07:40 10° SSW 22:12:09 63° W 22:16:37 10° N
Helios 1A 3.9 22:13:13 14° S 22:16:41 46° W 22:20:47 10° NNW
Cosmos 1503 Rocket 4.2 22:20:39 10° NNW 22:25:51 66° WSW 22:28:33 28° S
Cosmos 2279 Rocket 4.2 22:20:32 10° SSW 22:26:45 74° W 22:33:00 10° N
CZ-4B DEB 4.2 22:26:45 27° SW 22:27:35 32° W 22:30:22 10° NNW
Resurs 01 Rocket 4.4 22:26:48 10° SW 22:29:22 15° W 22:31:57 10° WNW
MetOp-A 4.3 22:28:39 44° ESE 22:29:51 53° ENE 22:35:03 10° N
Cosmos 1354 Rocket 4.4 22:24:40 10° NNW 22:29:52 60° WSW 22:32:34 28° S
YAOGAN 6 2.5 22:31:23 78° SSW 22:31:34 84° W 22:35:13 10° NNW
Cosmos 1867 4.5 22:26:51 10° NNW 22:31:46 33° NE 22:32:45 31° ENE
H-2A R/B 3.3 22:33:27 24° ENE 22:33:27 24° ENE 22:37:07 10° NNE
OAO 3 Rocket 3.1 22:28:49 10° W 22:33:43 72° S 22:34:27 60° SE
SPOT 5 3.1 22:43:24 51° ENE 22:43:25 51° ENE 22:48:00 10° N
Cosmos 968 Rocket 3.6 22:41:34 10° N 22:46:40 55° ENE 22:46:52 54° ENE
H-2A R/B 4.1 15:02:10 10° SSW 22:46:51 63° S 22:51:40 37° ESE
Cosmos 2263 Rocket 2.1 22:43:21 10° NNW 22:48:56 81° WSW 22:50:09 56° S
COSMOS 2428 3.9 22:52:08 28° ENE 22:52:08 28° ENE 22:55:09 10° NE
Meteor 2-10 Rocket 3.8 22:46:39 27° SSW 22:49:57 80° W 22:55:48 10° N
Cosmos 2322 Rocket 3.9 22:46:45 10° WSW 22:51:45 33° WNW 22:56:47 10° N
Sich 1 Rocket 3.6 22:49:46 10° N 22:54:02 81° N 22:54:02 81° N
H-2A R/B 4.1 23:01:06 18° NE 23:01:06 18° NE 23:02:49 10° NNE
Cosmos 2360 Rocket 2.3 22:57:15 16° SSW 23:01:50 71° WNW 23:07:31 10° NNE
Cosmos 1908 Rocket 4.0 23:02:11 10° NNW 23:06:00 59° WNW 23:06:00 59° WNW
USA 245 4.1 23:08:12 75° SSE 23:08:44 89° W 23:14:06 10° NNW
Cosmos 2322 3.8 23:07:11 32° SW 23:09:53 72° WNW 23:15:36 10° NNE
NOAA 11 4.4 23:09:52 59° SW 23:10:37 66° WSW 23:16:06 10° NNW
USA 234 3.7 23:10:14 42° SSW 23:11:42 48° SW 23:17:59 10° NW
SEDSat Delta rocket 4.3 23:06:36 10° WSW 23:10:43 43° SW 23:10:43 43° SW
Meteor 1-20 Rocket 4.5 23:07:25 10° N 23:12:18 56° NE 23:12:18 56° NE
SPOT 1/Viking Rocket 3.7 23:21:00 69° N 23:21:00 69° N 23:25:36 10° NNW
Lacrosse 4 Rocket 3.6 23:18:19 10° WNW 23:21:26 19° WSW 23:21:30 19° WSW
ERS-1 Rocket 4.3 23:22:09 29° WSW 23:23:09 31° W 23:27:35 10° NW
Okean 2 Rocket 4.3 23:19:31 10° N 23:22:22 38° N 23:22:22 38° N
ATLAS 5 CENTAUR R/B 2.4 23:23:12 10° NW 23:29:18 78° WSW 23:29:18 78° WSW
Cosmos 2333 Rocket 4.2 23:34:09 17° NE 23:34:09 17° NE 23:35:36 10° NE
ARGOS 3.7 23:34:29 52° W 23:34:29 52° W 23:39:31 10° NNW
SeaSat 1 3.2 23:36:49 49° WNW 23:36:49 49° WNW 23:40:42 10° NNW
Cosmos 2237 Rocket 4.5 23:41:33 13° NE 23:41:33 13° NE 23:42:07 10° NE
Cosmos 2278 Rocket 3.9 23:38:31 10° N 23:41:58 23° NE 23:41:58 23° NE
Terra 3.3 23:48:57 32° N 23:48:57 32° N 23:51:32 10° N
Cosmos 1844 Rocket 3.5 23:46:46 10° NNW 23:50:44 47° N 23:50:44 47° N
